Regional Weather Roundup
Issued by NWS

Home | Current Version | Previous Version | Graphics & Text | Print | Product List | Glossary On
Versions: 1 2 3 4 5 6 7 8 9 10 11 12 13 14 15 16 17 18 19 20 21 22 23 24 25 26 27 28 29 30 31 32 33 34 35 36 37 38 39 40 41 42 43 44 45 46 47 48 49 50
000
ASUS43 KLMK 292010
RWRKY
KENTUCKY REGIONAL WEATHER ROUNDUP
NATIONAL WEATHER SERVICE LOUISVILLE KY
400 PM EDT TUE JUL 29 2014

NOTE "FAIR" INDICATES FEW OR NO CLOUDS BELOW 12,000 FEET
WITH NO SIGNIFICANT WEATHER AND/OR OBSTRUCTIONS TO VISIBILITY.

KYZ001>023-026-027-061>063-070>075-292100-
WESTERN AND SOUTH CENTRAL KENTUCKY

CITY           SKY/WX    TMP DP  RH WIND       PRES   REMARKS
PADUCAH        MOSUNNY   81  54  39 NW9       30.12S
HENDERSON      PTSUNNY   79  55  44 NW9       30.09F
OWENSBORO      MOSUNNY   78  54  43 NW10      30.10S
HOPKINSVILLE   MOSUNNY   79  49  35 N10       30.09F
BOWLING GREEN  PTSUNNY   78  52  40 NW10      30.09S
GLASGOW        MOSUNNY   75  53  44 N8        30.09S
$$

KYZ024-025-028>034-038-045-046-053-292100-
NORTH CENTRAL KENTUCKY

CITY           SKY/WX    TMP DP  RH WIND       PRES   REMARKS
LOUISVILLE/SDF MOSUNNY   76  51  41 N5        30.07F
LOUISVILLE/LOU MOSUNNY   77  51  40 NW12      30.08F
FORT KNOX      MOSUNNY   74  57  55 NW6       30.08S
$$

KYZ035>037-039>044-047>052-055>060-089>105-292100-
NORTHEAST KENTUCKY

CITY           SKY/WX    TMP DP  RH WIND       PRES   REMARKS
LEXINGTON      PTSUNNY   73  53  49 NW7       30.09S
COVINGTON      MOSUNNY   72  51  47 N9        30.07F
FRANKFORT      MOSUNNY   73  52  47 VRB7      30.08S
$$

KYZ054-064>069-076>088-106>120-292100-
SOUTHEAST KENTUCKY

CITY           SKY/WX    TMP DP  RH WIND       PRES   REMARKS
JACKSON        CLOUDY    69  54  58 VRB5      30.07S
LONDON         MOSUNNY   73  51  46 W9        30.08S
SOMERSET       MOSUNNY   72  50  46 NW6       30.09S
MIDDLESBORO    SUNNY     73  51  45 NW9G16    30.07S
MONTICELLO     PTCLDY    74  56  53 N7        30.10F
$$




USA.gov is the U.S. government's official web portal to all federal, state and local government web resources and services.